Location: Newark
(39.9500°N, 8.6833°E)
Time: 02:32:00
(UTC+00:00)

Hubble Space Telescope - Visible Passes

Search period start: 14 December 2019 00:00
Search period end: 24 December 2019 00:00
Orbit: 536 x 540 km, 28.5° (Epoch: 12 December)

Date Brightness Start Highest point End Pass type
(mag) Time Alt. Az. Time Alt. Az. Time Alt. Az.
14 Dec 3.7 05:17:48 10° S 05:18:51 11° SSE 05:19:54 10° SSE visible
15 Dec 3.5 05:06:23 10° SSW 05:08:06 12° SSE 05:09:50 10° SE visible
16 Dec 3.4 04:55:16 10° SSW 04:57:23 14° S 04:59:29 10° SE visible
17 Dec 3.2 04:44:46 11° SSW 04:46:39 15° S 04:49:01 10° SE visible
18 Dec 3.0 04:34:57 15° S 04:35:55 16° S 04:38:27 10° SE visible
19 Dec 3.0 04:25:04 16° S 04:25:13 16° S 04:27:49 10° SE visible
19 Dec 3.3 06:03:31 10° SW 06:05:41 14° S 06:07:52 10° SSE visible
20 Dec 3.1 04:15:09 16° SSE 04:15:09 16° SSE 04:17:09 10° SE visible
20 Dec 3.3 05:53:08 10° SW 05:54:57 13° SSW 05:56:47 10° SSE visible
21 Dec 3.4 04:05:12 14° SSE 04:05:12 14° SSE 04:06:25 10° SE visible
21 Dec 3.3 05:42:59 10° SSW 05:44:13 11° SSW 05:45:27 10° S visible
22 Dec 3.7 03:55:14 11° SSE 03:55:14 11° SSE 03:55:38 10° SE visible
